FW2865 Weather Reports


time (UTC)temp
C
wind
direction
speed
KPH
gust
KPH
rain 1hr
cm
rain 24hr
cm
rain mn
cm
humidity
%
barometer
mb
20260508213011 18 331 17.7 32.2 0.00 0.00 0.00 15 1010.9
20260508211523 18 338 11.3 37.0 0.00 0.00 0.00 18 1010.9
20260508204505 18 342 17.7 41.8 0.00 0.00 0.00 19 1011.0
20260508203005 17 360 17.7 37.0 0.00 0.00 0.00 17 1011.1
20260508201503 18 351 17.7 40.2 0.00 0.00 0.00 19 1011.1
20260508194505 18 290 22.5 33.8 0.00 0.00 0.00 17 1011.4
20260508193150 18 315 11.3 33.8 0.00 0.00 0.00 17 1011.5
20260508191605 18 355 22.5 48.3 0.00 0.00 0.00 17 1011.4
20260508191503 18 24 20.9 48.3 0.00 0.00 0.00 18 1011.5
20260508184515 17 299 12.9 35.4 0.00 0.00 0.00 20 1011.6
20260508183021 17 360 14.5 37.0 0.00 0.00 0.00 21 1011.8
20260508181511 17 360 16.1 30.6 0.00 0.00 0.00 20 1011.9
20260508174552 17 298 11.3 33.8 0.00 0.00 0.00 22 1012.1
20260508173046 16 360 11.3 32.2 0.00 0.00 0.00 21 1012.0
20260508171544 17 360 16.1 32.2 0.00 0.00 0.00 22 1012.0
20260508164544 17 298 16.1 30.6 0.00 0.00 0.00 21 1012.0
20260508163036 17 293 12.9 25.7 0.00 0.00 0.00 21 1011.9
20260508161531 16 306 14.5 29.0 0.00 0.00 0.00 21 1011.8
20260508154540 15 360 14.5 24.1 0.00 0.00 0.00 25 1012.0
20260508153019 12 46 4.8 8.0 0.00 0.00 0.00 43 1011.9
20260508151516 11 360 1.6 9.7 0.00 0.00 0.00 48 1012.0
20260508144513 8 360 0.0 0.0 0.00 0.00 0.00 52 1012.1
20260508143009 7 360 0.0 0.0 0.00 0.00 0.00 57 1012.2
20260508141506 6 360 0.0 0.0 0.00 0.00 0.00 60 1012.3
20260508134622 3 360 0.0 0.0 0.00 0.00 0.00 65 1012.4
20260508133058 2 360 0.0 0.0 0.00 0.00 0.00 65 1012.5
20260508131551 1 360 0.0 0.0 0.00 0.00 0.00 65 1012.3
20260508124546 1 360 0.0 0.0 0.00 0.00 0.00 64 1012.1
20260508123050 1 360 0.0 0.0 0.00 0.00 0.00 64 1012.1
20260508121545 1 360 0.0 0.0 0.00 0.00 0.00 64 1011.9
20260508114538 1 360 0.0 0.0 0.00 0.00 0.00 64 1011.6
20260508113037 1 360 0.0 0.0 0.00 0.00 0.00 63 1011.6
20260508111537 1 360 0.0 0.0 0.00 0.00 0.00 63 1011.6
20260508104531 1 360 0.0 0.0 0.00 0.00 0.00 62 1011.6
20260508103033 1 360 0.0 0.0 0.00 0.00 0.00 61 1011.4
20260508101528 2 360 0.0 0.0 0.00 0.00 0.00 60 1011.3
20260508094526 2 360 0.0 0.0 0.00 0.00 0.00 59 1011.2
20260508093024 2 360 0.0 0.0 0.00 0.00 0.00 58 1011.1
20260508091523 2 360 0.0 0.0 0.00 0.00 0.00 58 1011.1
20260508084518 3 360 0.0 0.0 0.00 0.00 0.00 56 1011.2
20260508083015 3 360 0.0 0.0 0.00 0.00 0.00 56 1011.4
20260508081513 3 360 0.0 0.0 0.00 0.00 0.00 55 1011.4
20260508074511 4 360 0.0 0.0 0.00 0.00 0.00 54 1011.6
20260508073009 4 360 0.0 0.0 0.00 0.00 0.00 53 1011.5
20260508071508 5 360 0.0 0.0 0.00 0.00 0.00 53 1011.5
20260508064504 5 360 0.0 0.0 0.00 0.00 0.00 52 1011.5
20260508063008 5 360 0.0 0.0 0.00 0.00 0.00 51 1011.5
20260508061609 5 360 0.0 0.0 0.00 0.00 0.00 51 1011.5
20260508054501 6 360 0.0 0.0 0.00 0.00 0.00 48 1011.5
20260508053101 6 360 0.0 0.0 0.00 0.00 0.00 47 1011.3
20260508051614 7 360 0.0 0.0 0.00 0.00 0.00 47 1011.2
20260508044601 7 360 0.0 0.0 0.00 0.00 0.00 44 1011.2
20260508043100 8 360 0.0 3.2 0.00 0.00 0.00 43 1011.2
20260508041600 8 360 0.0 4.8 0.00 0.00 0.00 40 1011.3
20260508041502 9 360 0.0 4.8 0.00 0.00 0.00 40 1011.2
20260508034558 10 360 0.0 0.0 0.00 0.00 0.00 37 1011.2
20260508033101 11 360 0.0 0.0 0.00 0.00 0.00 35 1011.0
20260508031600 12 360 0.0 0.0 0.00 0.00 0.00 32 1010.9
20260508024618 13 360 4.8 6.4 0.00 0.00 0.00 30 1010.8
20260508023056 13 360 3.2 8.0 0.00 0.00 0.00 27 1010.6
20260508021605 15 360 3.2 8.0 0.00 0.00 0.00 25 1010.7
20260508020155 16 360 4.8 17.7 0.00 0.00 0.00 22 1010.6
20260508014556 16 360 8.0 19.3 0.00 0.00 0.00 21 1010.7
20260508013054 16 360 9.7 20.9 0.00 0.00 0.00 20 1010.6
20260508011601 16 348 11.3 24.1 0.00 0.00 0.00 20 1010.6
20260508004542 16 311 17.7 33.8 0.00 0.00 0.00 20 1010.7
20260508003029 16 282 12.9 24.1 0.00 0.00 0.00 19 1010.9
20260508001528 17 360 9.7 20.9 0.00 0.00 0.00 21 1011.2
20260508000011 16 360 11.3 25.7 0.00 0.00 0.00 21 1011.2
20260507234511 17 360 8.0 24.1 0.00 0.00 0.00 22 1011.5
20260507233009 17 360 9.7 22.5 0.00 0.00 0.00 22 1011.8
20260507231507 17 360 9.7 20.9 0.00 0.00 0.00 22 1012.0
20260507230005 17 360 14.5 25.7 0.00 0.00 0.00 22 1012.3
20260507224502 17 360 16.1 25.7 0.00 0.00 0.00 22 1012.6
20260507223003 18 298 11.3 32.2 0.00 0.00 0.00 21 1012.6
20260507221502 18 321 16.1 25.7 0.00 0.00 0.00 21 1012.7
20260507220101 17 341 16.1 30.6 0.00 0.00 0.00 20 1013.0
20260507214557 17 360 14.5 27.4 0.00 0.00 0.00 21 1013.0